Tracking 29892 objects as of 21-Nov-2024
HD Live streaming from Space Station
objects crossing your sky now

SOLRAD 7A

Track SOLRAD 7A now!
10-day predictions
SOLRAD 7A is classified as:


NORAD ID: 730
Int'l Code: 1964-001D
Perigee: 906.6 km
Apogee: 923.6 km
Inclination: 69.9 °
Period: 103.2 minutes
Semi major axis: 7286 km
RCS: 0.4496 m2 (medium)
Launch date: January 11, 1964
Source: United States (US)
Launch site: AIR FORCE WESTERN TEST RANGE (AFWTR)
Your satellite tracking list
Your tracking list is empty




NASA's NSSDC Master Catalog

Two Line Element Set (TLE):
1 00730U 64001D   24325.29283059  .00000119  00000-0  12601-3 0  9999
2 00730  69.9069  69.2823 0011710  40.0143 350.5811 13.95919684980558
Source of the keplerian elements: AFSPC